Regional Weather Roundup
Issued by NWS

Home | Current Version | Previous Version | Graphics & Text | Print | Product List | Glossary On
Versions: 1 2 3 4 5 6 7 8 9 10 11 12 13 14 15 16 17 18 19 20 21 22 23 24 25 26 27 28 29 30 31 32 33 34 35 36 37 38 39 40 41 42 43 44 45 46 47 48 49 50
000
ASUS43 KLOT 251500
RWRIL

ILLINOIS REGIONAL WEATHER ROUNDUP
NATIONAL WEATHER SERVICE CHICAGO/ROMEOVILLE IL
900 AM CST THU DEC 25 2014

NOTE: "FAIR" INDICATES FEW OR NO CLOUDS BELOW 12,000 FEET WITH NO
SIGNIFICANT WEATHER AND/OR OBSTRUCTIONS TO VISIBILITY.

* THESE STATIONS ARE NOT UNDER NWS QUALITY CONTROL. THEY ALSO MAY NOT
  REPORT WEATHER SUCH AS PRECIPITATION OR FOG.

ILZ001-002-007-009-015-016-024-251600-
NORTHWEST ILLINOIS

CITY           SKY/WX    TMP DP  RH WIND       PRES   REMARKS
MOLINE         SUNNY     35  28  75 S13       29.89R WCI  26
STERLING*      CLOUDY    36  28  75 W8        29.92R WCI  29
$$

ILZ003-004-008-010-011-017-018-251600-
NORTH CENTRAL ILLINOIS

CITY           SKY/WX    TMP DP  RH WIND       PRES   REMARKS
ROCKFORD       CLOUDY    34  26  72 SW15      29.92R WCI  24
$$

ILZ005-006-012>014-019>023-251600-
NORTHEAST ILLINOIS

CITY           SKY/WX    TMP DP  RH WIND       PRES   REMARKS
CHICAGO-OHARE  CLOUDY    34  27  75 SW16G22   29.91R WCI  24
CHICAGO-MIDWAY CLOUDY    36  29  75 SW17      29.93R WCI  26
AURORA         CLOUDY    35  27  72 SW13G23   29.93R WCI  26
WAUKEGAN       CLOUDY    33  27  78 SW12G21   29.88R WCI  24
DUPAGE AIRPORT CLOUDY    34  28  79 SW13      29.91R WCI  25
WHEELING       CLOUDY    34  27  75 SW17G24   29.93R WCI  23
NORTHERLY ISL    N/A     35  28  76 SW7         N/A  WCI  29
$$

LMZ740>746-251600-
SOUTHERN LAKE MICHIGAN

STATION/POSITION SKY/WX   TEMP    WIND        PRES    VSBY  WAVE
                          AIR SEA DIR/SP/G                  HT/PER
                          (F)     (DEG/KT/KT) (MB)    (MI)  (FT/S)
WAUKEGAN HARBOR            34                   N/A
HARRISON CRIB              34     240/ 18/ 26   N/A
BURNHAM HARBOR             35     250/  9/ 16   N/A
CALUMET HARBOR             35     220/  9/ 17 1012.1R
MICHIGAN CITY              35     200/ 15/ 18   N/A
$$

ILZ025>027-034>036-040-047-049-050-058-095>099-251600-
WEST-CENTRAL ILLINOIS

CITY           SKY/WX    TMP DP  RH WIND       PRES   REMARKS
QUINCY         SUNNY     35  29  78 S14       29.93R WCI  26
$$

ILZ028>032-037-038-041>044-048-051>054-059>061-251600-
CENTRAL ILLINOIS

CITY           SKY/WX    TMP DP  RH WIND       PRES   REMARKS
DECATUR        CLOUDY    37  30  75 SW13      30.01R WCI  29
PEORIA         SUNNY     37  29  72 S10       29.95R WCI  30
SPRINGFIELD    SUNNY     38  30  73 S13       29.99R WCI  30
TAYLORVILLE    NOT AVBL
$$

ILZ033-039-045-046-055>057-062-063-251600-
EAST-CENTRAL ILLINOIS

CITY           SKY/WX    TMP DP  RH WIND       PRES   REMARKS
CHAMPAIGN      CLOUDY    36  32  85 SW13      30.01R WCI  27
MATTOON        CLOUDY    37  31  78 SW9       30.03R WCI  30
$$

ILZ079-100>102-251600-
SOUTHWEST ILLINOIS

CITY           SKY/WX    TMP DP  RH WIND       PRES   REMARKS
ALTON          SUNNY     37  32  81 S12       30.03R WCI  30
BELLEVILLE     SUNNY     38  34  86 S9        30.05R WCI  31
CAHOKIA*       SUNNY     38  31  76 S8        30.04R WCI  32
$$

ILZ064>066-069>071-074>076-080>082-084>086-088>090-092>094-251600-
SOUTH-CENTRAL ILLINOIS

CITY           SKY/WX    TMP DP  RH WIND       PRES   REMARKS
CARBONDALE     SUNNY     38  32  79 S9        30.10R WCI  31
MARION         SUNNY     37  32  81 S7        30.10R WCI  32
MT. VERNON     SUNNY     39  32  75 SW10      30.09R WCI  32
$$

ILZ067-068-072-073-078-083-087-091-251600-
SOUTHEAST ILLINOIS

CITY           SKY/WX    TMP DP  RH WIND       PRES   REMARKS
LAWRENCEVILLE  CLOUDY    39  33  79 SW10      30.10R WCI  32
$$

ABBREVIATIONS USED IN REMARKS
   TC - TEMPERATURE IN CELSIUS
  WCI - WIND CHILL INDEX
   HX - HEAT INDEX
  VSB - VISIBILITY
$$



USA.gov is the U.S. government's official web portal to all federal, state and local government web resources and services.